Location: Newark
(42.7133°N, 87.7910°W)
Time: 03:00:52
(UTC+00:00)

Tiros 1 - Pass Details

Date: 27 September 2019
Orbit: 630 x 664 km, 48.4° (Epoch: 19 October)

Event Time Altitude Azimuth Distance (km) Brightness Sun altitude
Rises 20:19:49 0° 294° (WNW) 2,969 10.9 33.1°
Reaches altitude 10° 20:22:13 10° 298° (WNW) 2,051 10.1 32.8°
Maximum altitude 20:26:53 57° 18° (NNE) 759 7.6 32.1°
Drops below altitude 10° 20:31:28 10° 97° (E) 2,024 9.4 31.5°
Sets 20:33:49 0° 101° (ESE) 2,926 10.2 31.1°
